Regional Weather Roundup
Issued by NWS

Home | Current Version | Previous Version | Text Only | Print | Product List | Glossary On
Versions: 1 2 3 4 5 6 7 8 9 10 11 12 13 14 15 16 17 18 19 20 21 22 23 24 25 26 27
000
ASUS45 KSLC 200710
RWRUT

UTAH REGIONAL WEATHER ROUNDUP
NATIONAL WEATHER SERVICE SALT LAKE CITY UT
100 AM MDT FRI OCT 20 2017

UTZ001>011-023>025-200800-

NORTHERN UTAH

CITY           SKY/WX    TMP DP  RH WIND       PRES   REMARKS
BRIGHAM CITY   CLEAR     46  29  51 N3        29.71F
HILL AFB       CLEAR     59  36  42 S14       29.72F
LOGAN          CLEAR     41  28  60 N5        29.71F
OGDEN          CLEAR     61  38  42 S12       29.70F
SALT LAKE CITY PTCLDY    66  39  37 S17       29.71F
TOOELE VALLEY  CLEAR     68  36  30 S18G26    29.71F
WENDOVER       CLEAR     42  23  46 CALM      29.69F
WEST JORDAN    CLEAR     60  40  48 S10       29.75F

$$

UTZ011>015-024>027-200800-

CENTRAL/NORTHEAST UTAH

CITY           SKY/WX    TMP DP  RH WIND       PRES   REMARKS
PROVO AIRPORT  CLOUDY    58  42  55 SE9       29.77F
MOAB/CANYONLAN MOCLDY    61  34  36 SE5       29.84F
DELTA          CLEAR     50  34  53 S8        29.80F
PRICE          CLOUDY    53  24  32 CALM      29.90F
RICHFIELD      CLEAR     43  36  75 CALM      29.87F
ROOSEVELT      MOCLDY    46  34  61 W5        29.88F
VERNAL         PTCLDY    46  29  51 W5        29.86F

$$

UTZ013>016-019>022-027-200800-

SOUTHERN UTAH

CITY           SKY/WX    TMP DP  RH WIND       PRES   REMARKS
BRYCE CANYON   CLEAR     30  25  81 W5        30.04F WCI  25
CEDAR CITY     CLEAR     53  30  41 SE8       29.87F
MILFORD        CLEAR     50  31  48 S10       29.83F
ST GEORGE      MOSUNNY   63  29  27 SW6       29.78F
HANKSVILLE     PTCLDY    61  36  39 CALM      29.87F
KANAB          CLEAR     43  28  56 NE6       29.95F
BLANDING         N/A     52  33  48 NE6       30.06F

$$

REGIONAL REPORTS     COLORADO/ARIZONA

CITY           SKY/WX    TMP DP  RH WIND       PRES   REMARKS
CRAIG, CO      PTCLDY    40  30  67 CALM      29.94F
GRAND JUNCTION MOCLDY    61  31  32 E12       29.89F
RIFLE, CO      MOCLDY    52  32  46 VRB5      29.93F
MONTROSE, CO   PTCLDY    52  31  44 SE9       29.98F
CORTEZ, CO     MOCLDY    43  33  68 SE3       30.02F
COLORADO CITY    N/A     45  32  61 CALM      29.93F
PAGE, AZ       PTCLDY    66  37  34 SW7       29.86F
GRAND CANYON   CLEAR     37  26  64 CALM      30.05F
KINGMAN, AZ    CLEAR     59  30  33 SW7       29.86S
FLAGSTAFF, AZ  CLEAR     38  27  64 CALM      30.08F

$$

REGIONAL REPORTS    NEVADA/IDAHO/WYOMING

CITY           SKY/WX    TMP DP  RH WIND       PRES   REMARKS
LAS VEGAS, NV  CLEAR     74  32  21 S16G28    29.73S
ELY, NY        CLEAR     52  25  35 S21       29.81F
ELKO, NV       CLEAR     40  18  41 N6        29.68F
POCATELLO, ID  CLEAR     65  23  20 S28G38    29.62F
BURLEY, ID     CLEAR     59  18  20 S16       29.60F
FORT BRIDGER,    N/A     48  30  49 S13       29.90F
EVANSTON, WY   CLEAR     49  34  56 S9        29.87F
ROCK SPRINGS,  CLEAR     51  27  39 SW7       29.89F
KEMMERER, WY   PTCLDY    46  27  46 CALM      29.89F

$$




USA.gov is the U.S. government's official web portal to all federal, state and local government web resources and services.